Tracking 34719 objects as of 13-Jul-2026
HD Live streaming from Space Station
objects crossing your sky now

PSLV R/B

Track PSLV R/B now!
10-day predictions


NORAD ID: 44862
Int'l Code: 2019-089L
Perigee: 403.6 km
Apogee: 421.9 km
Inclination: 37.0 °
Period: 92.7 minutes
Semi major axis: 6783 km
RCS: Unknown
Launch date: December 11, 2019
Source: India (IND)
Launch site: SRIHARIKOTA (SRI)

Note: This is a ROCKET BODY
Your satellite tracking list
Your tracking list is empty




NASA's NSSDC Master Catalog

Two Line Element Set (TLE):
1 44862U 19089L   26193.29136249  .00016423  00000-0  24874-3 0  9992
2 44862  36.9672 258.4942 0013510 339.6755  20.3465 15.53807501365639
Source of the keplerian elements: AFSPC